Location: Acts Church of Fort Worth
(32.6786°N, 97.2668°W)
Time: 14:10:12
(UTC+00:00)

RESURS DK-1 - Pass Details

Date: 18 January 2026
Orbit: 526 x 531 km, 69.9° (Epoch: 18 February)

Event Time Altitude Azimuth Distance (km) Brightness Sun altitude
Rises 00:20:59 0° 213° (SSW) 2,656 6.8 -7.3°
Reaches altitude 10° 00:23:13 10° 220° (SW) 1,771 6.0 -7.7°
Maximum altitude 00:27:01 46° 294° (WNW) 718 3.3 -8.5°
Drops below altitude 10° 00:30:51 10° 9° (N) 1,783 4.7 -9.2°
Sets 00:33:06 0° 15° (NNE) 2,676 5.5 -9.7°
